CARTOSAT-3

Last updated on Fri Apr 25 2025 00:02:26 GMT+0000 (Coordinated Universal Time)

1 44804U 19081A 25114.19410111 .00007029 00000+0 33612-3 0 9995 2 44804 97.4851 176.2344 0015266 172.6058 187.5405 15.19205019299803
UTC large
Height (km)
Speed (km/s)
/
Latitude / Longitude
Inclination (degrees)
Orbital Period (minutes)
Azimuth
Elevation
Range (km)
Doppler Factor

Next 0 passes for location: London (51.5072 / 0.1276)

Sorry there are no passes over London.